TimeCDT,TemperatureF,Dew PointF,Humidity,Sea Level PressureIn,VisibilityMPH,Wind Direction,Wind SpeedMPH,Gust SpeedMPH,PrecipitationIn,Events,Conditions,WindDirDegrees,DateUTC
12:52 AM,39.0,34.0,82,30.14,10.0,SSW,11.5,-,N/A,,Clear,200,2013-04-05 05:52:00
1:52 AM,37.0,33.1,86,30.13,10.0,South,8.1,-,N/A,,Clear,190,2013-04-05 06:52:00
2:52 AM,37.0,33.1,86,30.11,10.0,South,9.2,-,N/A,,Clear,190,2013-04-05 07:52:00
3:52 AM,37.0,33.1,86,30.09,10.0,South,10.4,-,N/A,,Clear,190,2013-04-05 08:52:00
4:52 AM,39.0,35.1,86,30.09,10.0,SSW,9.2,-,N/A,,Clear,200,2013-04-05 09:52:00
5:52 AM,39.0,35.1,86,30.06,10.0,South,11.5,-,N/A,,Clear,180,2013-04-05 10:52:00
6:52 AM,35.1,32.0,89,30.07,8.0,South,9.2,-,N/A,,Clear,180,2013-04-05 11:52:00
7:52 AM,36.0,33.1,89,30.09,6.0,South,11.5,-,N/A,,Clear,190,2013-04-05 12:52:00
8:52 AM,44.1,37.9,79,30.07,8.0,South,10.4,-,N/A,,Clear,180,2013-04-05 13:52:00
9:52 AM,51.1,39.0,63,30.05,10.0,South,12.7,-,N/A,,Clear,180,2013-04-05 14:52:00
10:52 AM,60.1,37.0,42,30.01,10.0,South,20.7,29.9,N/A,,Clear,190,2013-04-05 15:52:00
11:52 AM,61.0,36.0,39,30.00,10.0,South,25.3,28.8,N/A,,Clear,190,2013-04-05 16:52:00
12:52 PM,69.1,36.0,30,29.93,10.0,South,23.0,32.2,N/A,,Clear,180,2013-04-05 17:52:00
1:52 PM,75.0,30.9,20,29.86,10.0,South,29.9,40.3,N/A,,Clear,180,2013-04-05 18:52:00
2:52 PM,75.0,32.0,21,29.82,10.0,South,33.4,41.4,N/A,,Clear,180,2013-04-05 19:52:00
3:52 PM,77.0,34.0,21,29.77,10.0,South,33.4,42.6,N/A,,Clear,190,2013-04-05 20:52:00
4:52 PM,75.9,35.1,23,29.74,10.0,South,35.7,43.7,N/A,,Clear,170,2013-04-05 21:52:00
5:52 PM,73.9,34.0,23,29.72,10.0,South,34.5,49.5,N/A,,Clear,170,2013-04-05 22:52:00
6:52 PM,70.0,37.9,31,29.71,10.0,South,27.6,41.4,N/A,,Clear,170,2013-04-05 23:52:00
7:52 PM,64.9,39.0,39,29.71,10.0,South,27.6,38.0,N/A,,Clear,170,2013-04-06 00:52:00
8:52 PM,60.1,39.0,46,29.71,10.0,South,26.5,33.4,N/A,,Clear,170,2013-04-06 01:52:00
9:52 PM,57.0,39.9,53,29.70,10.0,SSE,23.0,32.2,N/A,,Clear,160,2013-04-06 02:52:00
10:52 PM,54.0,41.0,62,29.68,10.0,South,20.7,29.9,N/A,,Clear,170,2013-04-06 03:52:00
11:52 PM,54.0,41.0,62,29.65,10.0,South,23.0,33.4,N/A,,Clear,180,2013-04-06 04:52:00